Location: Calais Saint-Pierre
(50.9509°N, 1.8522°E)
Time: 05:47:09
(UTC+00:00)

DNEPR-1 R/B - Pass Details

Date: 15 May 2026
Orbit: 580 x 1333 km, 64.6° (Epoch: 6 June)

Event Time Altitude Azimuth Distance (km) Brightness Sun altitude
Rises 20:20:52 0° 318° (NW) 3,141 9.6 -6.5°
Reaches altitude 10° 20:23:04 10° 321° (NW) 2,306 8.2 -6.8°
Maximum altitude 20:28:22 68° 45° (NE) 945 4.5 -7.4°
Drops below altitude 10° 20:34:51 10° 128° (SE) 2,808 6.2 -8.1°
Enters shadow 20:34:59 10° 128° (SE) 2,852 6.3 -8.1°
